Simultaneous Nadir Overpasses (SNOs) Predictions

Prediction of SNOs between GOES-16 and AQUA Satellite Orbit:

Table of predicted SNOs for the next 14.0 days since TLE Epoch: 2/18/2017
Index Date Time (GOES-16) GOES-16 Lat,Lon AQUA Lat,Lon Distance(km) Time Diff (sec)
1 02/18/2017 07:46:10 0.01, -89.48 0.59, -92.23 312.56 80
2 02/20/2017 07:31:20 0.00, -89.48 -0.04, -89.27 23.30 80
3 02/22/2017 07:19:10 -0.00, -89.48 -0.69, -86.32 359.36 80
4 02/22/2017 19:40:35 0.00, -89.49 -0.40, -91.52 230.08 80
5 02/24/2017 19:31:04 0.01, -89.49 0.18, -88.55 106.44 80
6 02/25/2017 07:52:19 -0.01, -89.49 0.88, -93.71 480.21 80
7 02/26/2017 19:18:54 0.01, -89.50 0.84, -85.60 443.27 80
8 02/27/2017 07:40:09 -0.01, -89.49 0.23, -90.76 143.39 80
9 03/01/2017 07:25:19 -0.01, -89.50 -0.37, -87.80 193.79 80
10 03/01/2017 19:46:43 0.01, -89.51 -0.71, -92.99 396.01 80
11 03/03/2017 19:34:32 0.01, -89.52 -0.11, -90.03 58.62 80




NCC Satellite Simultaneous Nadir Overpasses (SNOs) Prediction Service
